Time,TemperatureF,DewpointF,PressureIn,WindDirection,WindDirectionDegrees,WindSpeedMPH,WindSpeedGustMPH,Humidity,HourlyPrecipIn,Conditions,Clouds,dailyrainin,SoftwareType,DateUTC
2013-04-13 00:02:00,69.6,31.3,-100.00,WSW,244,11.0,26.0,24,0.00,,,0.00,meteohub,2013-04-13 07:02:00,
2013-04-13 00:07:00,69.4,31.1,-100.00,SW,234,14.0,25.0,24,0.00,,,0.00,meteohub,2013-04-13 07:07:00,
2013-04-13 00:12:00,69.6,31.3,-100.00,SW,236,9.0,25.0,24,0.00,,,0.00,meteohub,2013-04-13 07:12:00,
2013-04-13 00:17:00,69.4,31.1,-100.00,WSW,245,16.0,25.0,24,0.00,,,0.00,meteohub,2013-04-13 07:17:00,
2013-04-13 00:22:00,69.3,32.0,-100.00,West,261,14.0,23.0,25,0.00,,,0.00,meteohub,2013-04-13 07:22:00,
2013-04-13 00:27:00,69.3,32.0,-100.00,WSW,257,9.0,25.0,25,0.00,,,0.00,meteohub,2013-04-13 07:27:00,
2013-04-13 00:32:00,69.1,31.8,-100.00,WSW,243,11.0,25.0,25,0.00,,,0.00,meteohub,2013-04-13 07:32:00,
2013-04-13 00:37:00,68.9,32.5,-100.00,SW,228,10.0,25.0,26,0.00,,,0.00,meteohub,2013-04-13 07:37:00,
2013-04-13 00:42:00,68.7,32.4,-100.00,WSW,240,15.0,23.0,26,0.00,,,0.00,meteohub,2013-04-13 07:42:00,
2013-04-13 00:47:00,68.7,33.4,-100.00,SW,235,12.0,25.0,27,0.00,,,0.00,meteohub,2013-04-13 07:47:00,
2013-04-13 00:52:00,68.7,33.4,-100.00,SW,234,15.0,28.0,27,0.00,,,0.00,meteohub,2013-04-13 07:52:00,
2013-04-13 00:57:00,68.5,33.3,-100.00,SW,235,15.0,28.0,27,0.00,,,0.00,meteohub,2013-04-13 07:57:00,
2013-04-13 01:02:00,68.4,34.0,-100.00,SW,232,8.0,23.0,28,0.00,,,0.00,meteohub,2013-04-13 08:02:00,
2013-04-13 01:07:00,68.5,34.2,-100.00,WSW,255,11.0,29.0,28,0.00,,,0.00,meteohub,2013-04-13 08:07:00,
2013-04-13 01:12:00,68.5,34.2,-100.00,SW,234,12.0,29.0,28,0.00,,,0.00,meteohub,2013-04-13 08:12:00,
2013-04-13 01:17:00,68.5,33.3,-100.00,SW,223,9.0,29.0,27,0.00,,,0.00,meteohub,2013-04-13 08:17:00,
2013-04-13 01:22:00,68.4,34.0,-100.00,WSW,239,14.0,22.0,28,0.00,,,0.00,meteohub,2013-04-13 08:22:00,
2013-04-13 01:27:00,68.4,34.0,-100.00,SW,227,15.0,23.0,28,0.00,,,0.00,meteohub,2013-04-13 08:27:00,
2013-04-13 01:33:00,68.4,33.1,-100.00,SW,226,5.0,23.0,27,0.00,,,0.00,meteohub,2013-04-13 08:33:00,
2013-04-13 01:38:00,68.4,33.1,-100.00,WSW,241,10.0,23.0,27,0.00,,,0.00,meteohub,2013-04-13 08:38:00,
2013-04-13 01:43:00,68.2,32.0,-100.00,SW,225,7.0,22.0,26,0.00,,,0.00,meteohub,2013-04-13 08:43:00,
2013-04-13 01:48:00,68.2,32.0,-100.00,WSW,248,12.0,18.0,26,0.00,,,0.00,meteohub,2013-04-13 08:48:00,
2013-04-13 01:53:00,68.2,32.9,-100.00,WSW,239,9.0,18.0,27,0.00,,,0.00,meteohub,2013-04-13 08:53:00,
2013-04-13 01:58:00,68.0,31.8,-100.00,WSW,247,14.0,18.0,26,0.00,,,0.00,meteohub,2013-04-13 08:58:00,
2013-04-13 02:03:00,68.0,32.7,-100.00,South,190,7.0,18.0,27,0.00,,,0.00,meteohub,2013-04-13 09:03:00,
2013-04-13 02:09:00,67.8,33.4,-100.00,SW,221,8.0,21.0,28,0.00,,,0.00,meteohub,2013-04-13 09:09:00,
2013-04-13 02:14:00,67.8,33.4,-100.00,SW,228,5.0,21.0,28,0.00,,,0.00,meteohub,2013-04-13 09:14:00,
2013-04-13 02:19:00,67.6,32.5,-100.00,WSW,238,3.0,17.0,27,0.00,,,0.00,meteohub,2013-04-13 09:19:00,
2013-04-13 02:24:00,67.5,32.4,-100.00,West,261,11.0,16.0,27,0.00,,,0.00,meteohub,2013-04-13 09:24:00,
2013-04-13 02:29:00,67.5,32.4,-100.00,WSW,254,11.0,14.0,27,0.00,,,0.00,meteohub,2013-04-13 09:29:00,
2013-04-13 02:34:00,67.3,32.2,-100.00,WSW,251,11.0,15.0,27,0.00,,,0.00,meteohub,2013-04-13 09:34:00,
2013-04-13 02:39:00,67.3,33.1,-100.00,WSW,244,10.0,16.0,28,0.00,,,0.00,meteohub,2013-04-13 09:39:00,
2013-04-13 02:44:00,67.1,32.9,-100.00,West,262,15.0,18.0,28,0.00,,,0.00,meteohub,2013-04-13 09:44:00,
2013-04-13 02:49:00,67.1,32.0,-100.00,SW,217,5.0,22.0,27,0.00,,,0.00,meteohub,2013-04-13 09:49:00,
2013-04-13 02:54:00,67.1,31.1,-100.00,WSW,237,17.0,22.0,26,0.00,,,0.00,meteohub,2013-04-13 09:54:00,
2013-04-13 02:59:00,67.1,31.1,-100.00,WSW,238,12.0,22.0,26,0.00,,,0.00,meteohub,2013-04-13 09:59:00,
2013-04-13 03:05:00,67.1,30.0,-100.00,WSW,246,9.0,19.0,25,0.00,,,0.00,meteohub,2013-04-13 10:05:00,
2013-04-13 03:10:00,67.3,30.2,-100.00,WSW,237,7.0,24.0,25,0.00,,,0.00,meteohub,2013-04-13 10:10:00,
2013-04-13 03:15:00,67.3,29.3,-100.00,WSW,240,8.0,24.0,24,0.00,,,0.00,meteohub,2013-04-13 10:15:00,
2013-04-13 03:20:00,67.3,29.3,-100.00,WSW,238,8.0,24.0,24,0.00,,,0.00,meteohub,2013-04-13 10:20:00,
2013-04-13 03:25:00,67.3,29.3,-100.00,SW,234,9.0,19.0,24,0.00,,,0.00,meteohub,2013-04-13 10:25:00,
2013-04-13 03:30:00,66.9,30.0,-100.00,WSW,253,12.0,16.0,25,0.00,,,0.00,meteohub,2013-04-13 10:30:00,
2013-04-13 03:36:00,66.9,30.0,-100.00,West,271,8.0,17.0,25,0.00,,,0.00,meteohub,2013-04-13 10:36:00,
2013-04-13 03:41:00,67.1,29.1,-100.00,West,264,5.0,17.0,24,0.00,,,0.00,meteohub,2013-04-13 10:41:00,
2013-04-13 03:46:00,67.1,28.0,-100.00,SW,221,12.0,17.0,23,0.00,,,0.00,meteohub,2013-04-13 10:46:00,
2013-04-13 03:51:00,67.3,27.1,-100.00,SSW,198,10.0,19.0,22,0.00,,,0.00,meteohub,2013-04-13 10:51:00,
2013-04-13 03:56:00,67.3,28.2,-100.00,WSW,250,13.0,19.0,23,0.00,,,0.00,meteohub,2013-04-13 10:56:00,
2013-04-13 04:01:00,67.3,28.2,-100.00,WSW,252,11.0,21.0,23,0.00,,,0.00,meteohub,2013-04-13 11:01:00,
2013-04-13 04:06:00,67.3,28.2,-100.00,SW,219,10.0,21.0,23,0.00,,,0.00,meteohub,2013-04-13 11:06:00,
2013-04-13 04:12:00,67.3,28.2,-100.00,SSW,196,15.0,21.0,23,0.00,,,0.00,meteohub,2013-04-13 11:12:00,
2013-04-13 04:17:00,67.3,27.1,-100.00,WSW,237,7.0,22.0,22,0.00,,,0.00,meteohub,2013-04-13 11:17:00,
2013-04-13 04:22:00,67.5,27.3,-100.00,WSW,238,10.0,22.0,22,0.00,,,0.00,meteohub,2013-04-13 11:22:00,
2013-04-13 04:27:00,67.5,28.4,-100.00,WSW,240,17.0,22.0,23,0.00,,,0.00,meteohub,2013-04-13 11:27:00,
2013-04-13 04:32:00,67.5,28.4,-100.00,SW,227,17.0,22.0,23,0.00,,,0.00,meteohub,2013-04-13 11:32:00,
2013-04-13 04:37:00,67.3,28.2,-100.00,SW,219,7.0,18.0,23,0.00,,,0.00,meteohub,2013-04-13 11:37:00,
2013-04-13 04:42:00,67.1,28.0,-100.00,SW,217,6.0,18.0,23,0.00,,,0.00,meteohub,2013-04-13 11:42:00,
2013-04-13 04:47:00,66.9,28.9,-100.00,SW,228,9.0,17.0,24,0.00,,,0.00,meteohub,2013-04-13 11:47:00,
2013-04-13 04:52:00,66.7,28.8,-100.00,SW,216,12.0,15.0,24,0.00,,,0.00,meteohub,2013-04-13 11:52:00,
2013-04-13 04:57:00,66.6,29.7,-100.00,SW,229,17.0,17.0,25,0.00,,,0.00,meteohub,2013-04-13 11:57:00,
2013-04-13 05:02:00,66.6,30.6,-100.00,SW,219,19.0,23.0,26,0.00,,,0.00,meteohub,2013-04-13 12:02:00,
2013-04-13 05:08:00,66.6,30.6,-100.00,SW,236,9.0,23.0,26,0.00,,,0.00,meteohub,2013-04-13 12:08:00,
2013-04-13 05:13:00,66.4,30.4,-100.00,WSW,240,9.0,23.0,26,0.00,,,0.00,meteohub,2013-04-13 12:13:00,
2013-04-13 05:18:00,66.4,31.5,-100.00,SW,227,18.0,23.0,27,0.00,,,0.00,meteohub,2013-04-13 12:18:00,
2013-04-13 05:23:00,66.4,31.5,-100.00,SW,224,20.0,24.0,27,0.00,,,0.00,meteohub,2013-04-13 12:23:00,
2013-04-13 05:28:00,66.4,31.5,-100.00,WSW,256,10.0,25.0,27,0.00,,,0.00,meteohub,2013-04-13 12:28:00,
2013-04-13 05:33:00,66.2,32.2,-100.00,SW,228,14.0,29.0,28,0.00,,,0.00,meteohub,2013-04-13 12:33:00,
2013-04-13 05:38:00,65.8,31.8,-100.00,SW,227,10.0,29.0,28,0.00,,,0.00,meteohub,2013-04-13 12:38:00,
2013-04-13 05:43:00,65.8,32.7,-100.00,SW,217,9.0,23.0,29,0.00,,,0.00,meteohub,2013-04-13 12:43:00,
2013-04-13 05:48:00,65.7,32.5,-100.00,SW,224,18.0,22.0,29,0.00,,,0.00,meteohub,2013-04-13 12:48:00,
2013-04-13 05:53:00,65.8,32.7,-100.00,SW,229,11.0,23.0,29,0.00,,,0.00,meteohub,2013-04-13 12:53:00,
2013-04-13 05:58:00,65.8,32.7,-100.00,SSW,203,16.0,24.0,29,0.00,,,0.00,meteohub,2013-04-13 12:58:00,
2013-04-13 06:03:00,65.8,32.7,-100.00,SSW,209,10.0,24.0,29,0.00,,,0.00,meteohub,2013-04-13 13:03:00,
2013-04-13 06:08:00,65.8,33.6,-100.00,SSW,204,9.0,24.0,30,0.00,,,0.00,meteohub,2013-04-13 13:08:00,
2013-04-13 06:13:00,65.8,33.6,-100.00,SSW,206,9.0,25.0,30,0.00,,,0.00,meteohub,2013-04-13 13:13:00,
2013-04-13 06:18:00,65.8,33.6,-100.00,SSW,207,15.0,25.0,30,0.00,,,0.00,meteohub,2013-04-13 13:18:00,
2013-04-13 06:23:00,65.8,33.6,-100.00,SSW,210,11.0,25.0,30,0.00,,,0.00,meteohub,2013-04-13 13:23:00,
2013-04-13 06:30:00,65.7,34.2,-100.00,SSW,198,7.0,21.0,31,0.00,,,0.00,meteohub,2013-04-13 13:30:00,
2013-04-13 06:35:00,65.8,34.3,-100.00,SSW,209,11.0,20.0,31,0.00,,,0.00,meteohub,2013-04-13 13:35:00,
2013-04-13 06:40:00,65.7,35.1,-100.00,SSW,196,7.0,19.0,32,0.00,,,0.00,meteohub,2013-04-13 13:40:00,
2013-04-13 06:45:00,65.3,34.7,-100.00,SSW,206,10.0,19.0,32,0.00,,,0.00,meteohub,2013-04-13 13:45:00,
2013-04-13 06:50:00,65.5,35.6,-100.00,SW,229,7.0,17.0,33,0.00,,,0.00,meteohub,2013-04-13 13:50:00,
2013-04-13 06:56:00,65.5,35.6,-100.00,SW,225,9.0,17.0,33,0.00,,,0.00,meteohub,2013-04-13 13:56:00,
2013-04-13 07:01:00,65.7,35.8,-100.00,WSW,238,9.0,16.0,33,0.00,,,0.00,meteohub,2013-04-13 14:01:00,
2013-04-13 07:07:00,65.8,36.0,-100.00,SW,229,5.0,16.0,33,0.00,,,0.00,meteohub,2013-04-13 14:07:00,
2013-04-13 07:12:00,66.6,35.8,-100.00,SW,225,10.0,16.0,32,0.00,,,0.00,meteohub,2013-04-13 14:12:00,
2013-04-13 07:17:00,66.7,36.0,-100.00,SSW,198,10.0,16.0,32,0.00,,,0.00,meteohub,2013-04-13 14:17:00,
2013-04-13 07:22:00,67.3,35.6,-100.00,SSW,201,8.0,16.0,31,0.00,,,0.00,meteohub,2013-04-13 14:22:00,
2013-04-13 07:27:00,67.6,35.1,-100.00,West,262,8.0,15.0,30,0.00,,,0.00,meteohub,2013-04-13 14:27:00,
2013-04-13 07:32:00,68.4,34.9,-100.00,SSW,212,11.0,20.0,29,0.00,,,0.00,meteohub,2013-04-13 14:32:00,
2013-04-13 07:37:00,68.4,35.8,-100.00,SW,230,7.0,20.0,30,0.00,,,0.00,meteohub,2013-04-13 14:37:00,
2013-04-13 07:42:00,68.5,36.0,-100.00,WSW,254,12.0,20.0,30,0.00,,,0.00,meteohub,2013-04-13 14:42:00,
2013-04-13 07:47:00,69.1,35.4,-100.00,SW,236,11.0,19.0,29,0.00,,,0.00,meteohub,2013-04-13 14:47:00,
2013-04-13 07:52:00,68.9,36.1,-100.00,WSW,239,9.0,18.0,30,0.00,,,0.00,meteohub,2013-04-13 14:52:00,
2013-04-13 07:57:00,69.4,36.7,-100.00,SW,222,5.0,19.0,30,0.00,,,0.00,meteohub,2013-04-13 14:57:00,
2013-04-13 08:02:00,70.2,36.5,-100.00,SW,227,6.0,19.0,29,0.00,,,0.00,meteohub,2013-04-13 15:02:00,
2013-04-13 08:07:00,70.7,36.9,-100.00,SW,232,24.0,24.0,29,0.00,,,0.00,meteohub,2013-04-13 15:07:00,
2013-04-13 08:12:00,70.9,37.0,-100.00,SW,236,8.0,29.0,29,0.00,,,0.00,meteohub,2013-04-13 15:12:00,
2013-04-13 08:17:00,70.9,37.0,-100.00,SW,234,12.0,29.0,29,0.00,,,0.00,meteohub,2013-04-13 15:17:00,
2013-04-13 08:23:00,71.2,36.5,-100.00,SSW,213,21.0,29.0,28,0.00,,,0.00,meteohub,2013-04-13 15:23:00,
2013-04-13 08:28:00,71.1,36.3,-100.00,SW,230,14.0,28.0,28,0.00,,,0.00,meteohub,2013-04-13 15:28:00,
2013-04-13 08:33:00,71.4,35.8,-100.00,SW,231,12.0,30.0,27,0.00,,,0.00,meteohub,2013-04-13 15:33:00,
2013-04-13 08:38:00,71.2,35.6,-100.00,WSW,256,10.0,30.0,27,0.00,,,0.00,meteohub,2013-04-13 15:38:00,
2013-04-13 08:43:00,71.2,35.6,-100.00,SW,230,9.0,30.0,27,0.00,,,0.00,meteohub,2013-04-13 15:43:00,
2013-04-13 08:48:00,71.4,35.8,-100.00,SW,225,9.0,23.0,27,0.00,,,0.00,meteohub,2013-04-13 15:48:00,
2013-04-13 08:53:00,71.4,35.8,-100.00,SW,229,10.0,20.0,27,0.00,,,0.00,meteohub,2013-04-13 15:53:00,
2013-04-13 08:58:00,72.0,36.1,-100.00,SSW,196,7.0,18.0,27,0.00,,,0.00,meteohub,2013-04-13 15:58:00,
2013-04-13 09:03:00,72.7,35.8,-100.00,SW,227,10.0,20.0,26,0.00,,,0.00,meteohub,2013-04-13 16:03:00,
2013-04-13 09:08:00,72.7,34.9,-100.00,WSW,244,9.0,22.0,25,0.00,,,0.00,meteohub,2013-04-13 16:08:00,
2013-04-13 09:13:00,72.3,35.6,-100.00,SW,230,11.0,22.0,26,0.00,,,0.00,meteohub,2013-04-13 16:13:00,
2013-04-13 09:18:00,72.7,35.8,-100.00,WSW,238,11.0,22.0,26,0.00,,,0.00,meteohub,2013-04-13 16:18:00,
2013-04-13 09:23:00,73.2,35.2,-100.00,SW,223,17.0,21.0,25,0.00,,,0.00,meteohub,2013-04-13 16:23:00,
2013-04-13 09:28:00,73.6,35.6,-100.00,SW,223,9.0,21.0,25,0.00,,,0.00,meteohub,2013-04-13 16:28:00,
2013-04-13 09:34:00,73.8,33.6,-100.00,West,259,3.0,21.0,23,0.00,,,0.00,meteohub,2013-04-13 16:34:00,
2013-04-13 09:39:00,73.8,30.2,-100.00,West,277,4.0,21.0,20,0.00,,,0.00,meteohub,2013-04-13 16:39:00,
2013-04-13 09:44:00,73.6,31.3,-100.00,WSW,254,2.0,14.0,21,0.00,,,0.00,meteohub,2013-04-13 16:44:00,
2013-04-13 09:49:00,74.3,31.8,-100.00,WSW,238,5.0,14.0,21,0.00,,,0.00,meteohub,2013-04-13 16:49:00,
2013-04-13 09:54:00,74.7,30.9,-100.00,WSW,258,2.0,12.0,20,0.00,,,0.00,meteohub,2013-04-13 16:54:00,
2013-04-13 09:59:00,74.7,30.9,-100.00,WNW,294,4.0,7.0,20,0.00,,,0.00,meteohub,2013-04-13 16:59:00,
2013-04-13 10:04:00,74.8,31.1,-100.00,WSW,257,4.0,7.0,20,0.00,,,0.00,meteohub,2013-04-13 17:04:00,
2013-04-13 10:09:00,75.4,31.5,-100.00,WSW,258,17.0,17.0,20,0.00,,,0.00,meteohub,2013-04-13 17:09:00,
2013-04-13 10:14:00,75.6,30.4,-100.00,WNW,300,9.0,20.0,19,0.00,,,0.00,meteohub,2013-04-13 17:14:00,
2013-04-13 10:20:00,76.8,32.7,-100.00,West,259,8.0,20.0,20,0.00,,,0.00,meteohub,2013-04-13 17:20:00,
2013-04-13 10:25:00,76.6,30.0,-100.00,WSW,254,8.0,20.0,18,0.00,,,0.00,meteohub,2013-04-13 17:25:00,
2013-04-13 10:30:00,78.1,29.7,-100.00,SW,228,13.0,16.0,17,0.00,,,0.00,meteohub,2013-04-13 17:30:00,
2013-04-13 10:35:00,78.4,30.0,-100.00,West,267,5.0,20.0,17,0.00,,,0.00,meteohub,2013-04-13 17:35:00,
2013-04-13 10:40:00,77.7,27.9,-100.00,WNW,290,12.0,24.0,16,0.00,,,0.00,meteohub,2013-04-13 17:40:00,
2013-04-13 10:45:00,78.1,29.7,-100.00,West,265,9.0,24.0,17,0.00,,,0.00,meteohub,2013-04-13 17:45:00,
2013-04-13 10:50:00,78.1,28.2,-100.00,WNW,294,10.0,21.0,16,0.00,,,0.00,meteohub,2013-04-13 17:50:00,
2013-04-13 10:56:00,78.6,30.2,-100.00,WSW,252,15.0,24.0,17,0.00,,,0.00,meteohub,2013-04-13 17:56:00,
2013-04-13 11:01:00,79.0,28.9,-100.00,SW,236,7.0,24.0,16,0.00,,,0.00,meteohub,2013-04-13 18:01:00,
2013-04-13 11:06:00,79.3,27.7,-100.00,North,9,3.0,24.0,15,0.00,,,0.00,meteohub,2013-04-13 18:06:00,
2013-04-13 11:11:00,79.2,27.5,-100.00,NNW,335,5.0,21.0,15,0.00,,,0.00,meteohub,2013-04-13 18:11:00,
2013-04-13 11:17:00,78.6,28.8,-100.00,WNW,296,10.0,16.0,16,0.00,,,0.00,meteohub,2013-04-13 18:17:00,
2013-04-13 11:22:00,78.8,28.8,-100.00,North,351,1.0,12.0,16,0.00,,,0.00,meteohub,2013-04-13 18:22:00,
2013-04-13 11:27:00,79.2,27.5,-100.00,WSW,256,5.0,12.0,15,0.00,,,0.00,meteohub,2013-04-13 18:27:00,
2013-04-13 11:32:00,79.0,25.7,-100.00,WNW,294,9.0,12.0,14,0.00,,,0.00,meteohub,2013-04-13 18:32:00,
2013-04-13 11:37:00,79.3,27.7,-100.00,NNW,340,4.0,14.0,15,0.00,,,0.00,meteohub,2013-04-13 18:37:00,
2013-04-13 11:42:00,79.3,26.1,-100.00,North,5,5.0,14.0,14,0.00,,,0.00,meteohub,2013-04-13 18:42:00,
2013-04-13 11:47:00,79.9,26.4,-100.00,WNW,289,3.0,14.0,14,0.00,,,0.00,meteohub,2013-04-13 18:47:00,
2013-04-13 11:52:00,79.3,26.1,-100.00,NW,314,8.0,11.0,14,0.00,,,0.00,meteohub,2013-04-13 18:52:00,
2013-04-13 11:57:00,78.8,25.5,-100.00,NNW,336,5.0,11.0,14,0.00,,,0.00,meteohub,2013-04-13 18:57:00,
2013-04-13 12:02:00,79.9,28.0,-100.00,West,269,7.0,10.0,15,0.00,,,0.00,meteohub,2013-04-13 19:02:00,
2013-04-13 12:07:00,80.1,26.6,-100.00,WNW,291,0.0,10.0,14,0.00,,,0.00,meteohub,2013-04-13 19:07:00,
2013-04-13 12:13:00,79.7,26.2,-100.00,NW,309,0.0,10.0,14,0.00,,,0.00,meteohub,2013-04-13 19:13:00,
2013-04-13 12:17:00,80.4,28.6,-100.00,West,269,1.0,9.0,15,0.00,,,0.00,meteohub,2013-04-13 19:17:00,
2013-04-13 12:23:00,81.5,27.7,-100.00,NNW,336,2.0,10.0,14,0.00,,,0.00,meteohub,2013-04-13 19:23:00,
2013-04-13 12:28:00,82.8,27.0,-100.00,NNW,333,2.0,10.0,13,0.00,,,0.00,meteohub,2013-04-13 19:28:00,
2013-04-13 12:33:00,82.2,26.4,-100.00,NNW,344,1.0,10.0,13,0.00,,,0.00,meteohub,2013-04-13 19:33:00,
2013-04-13 12:38:00,82.2,26.4,-100.00,NW,315,3.0,7.0,13,0.00,,,0.00,meteohub,2013-04-13 19:38:00,
2013-04-13 12:43:00,82.9,27.0,-100.00,WNW,286,5.0,11.0,13,0.00,,,0.00,meteohub,2013-04-13 19:43:00,
2013-04-13 12:48:00,82.8,27.0,-100.00,North,355,4.0,15.0,13,0.00,,,0.00,meteohub,2013-04-13 19:48:00,
2013-04-13 12:53:00,83.8,29.5,-100.00,NW,310,8.0,15.0,14,0.00,,,0.00,meteohub,2013-04-13 19:53:00,
2013-04-13 12:58:00,83.8,29.5,-100.00,West,267,12.0,12.0,14,0.00,,,0.00,meteohub,2013-04-13 19:58:00,
2013-04-13 13:03:00,84.7,30.2,-100.00,WSW,254,5.0,19.0,14,0.00,,,0.00,meteohub,2013-04-13 20:03:00,
2013-04-13 13:08:00,85.3,28.9,-100.00,SW,226,3.0,19.0,13,0.00,,,0.00,meteohub,2013-04-13 20:08:00,
2013-04-13 13:13:00,84.6,30.2,-100.00,SW,225,11.0,19.0,14,0.00,,,0.00,meteohub,2013-04-13 20:13:00,
2013-04-13 13:18:00,85.5,30.9,-100.00,WSW,250,5.0,15.0,14,0.00,,,0.00,meteohub,2013-04-13 20:18:00,
2013-04-13 13:23:00,86.5,29.8,-100.00,WSW,252,21.0,21.0,13,0.00,,,0.00,meteohub,2013-04-13 20:23:00,
2013-04-13 13:28:00,85.5,30.9,-100.00,West,270,6.0,21.0,14,0.00,,,0.00,meteohub,2013-04-13 20:28:00,
2013-04-13 13:33:00,86.2,31.5,-100.00,WSW,246,7.0,21.0,14,0.00,,,0.00,meteohub,2013-04-13 20:33:00,
2013-04-13 13:38:00,86.5,29.8,-100.00,WSW,240,13.0,21.0,13,0.00,,,0.00,meteohub,2013-04-13 20:38:00,
2013-04-13 13:43:00,86.7,31.8,-100.00,West,276,8.0,20.0,14,0.00,,,0.00,meteohub,2013-04-13 20:43:00,
2013-04-13 13:49:00,86.5,29.8,-100.00,WNW,283,8.0,19.0,13,0.00,,,0.00,meteohub,2013-04-13 20:49:00,
2013-04-13 13:54:00,86.2,27.7,-100.00,WNW,298,3.0,18.0,12,0.00,,,0.00,meteohub,2013-04-13 20:54:00,
2013-04-13 13:59:00,86.0,31.3,-100.00,WNW,284,10.0,24.0,14,0.00,,,0.00,meteohub,2013-04-13 20:59:00,
2013-04-13 14:04:00,86.2,29.7,-100.00,West,264,9.0,24.0,13,0.00,,,0.00,meteohub,2013-04-13 21:04:00,
2013-04-13 14:09:00,86.4,27.7,-100.00,West,275,13.0,19.0,12,0.00,,,0.00,meteohub,2013-04-13 21:09:00,
2013-04-13 14:14:00,86.2,29.7,-100.00,WNW,287,11.0,19.0,13,0.00,,,0.00,meteohub,2013-04-13 21:14:00,
2013-04-13 14:19:00,85.8,27.3,-100.00,WNW,297,5.0,18.0,12,0.00,,,0.00,meteohub,2013-04-13 21:19:00,
2013-04-13 14:24:00,86.7,30.0,-100.00,SW,234,8.0,16.0,13,0.00,,,0.00,meteohub,2013-04-13 21:24:00,
2013-04-13 14:29:00,87.3,28.4,-100.00,WSW,257,12.0,18.0,12,0.00,,,0.00,meteohub,2013-04-13 21:29:00,
2013-04-13 14:34:00,87.4,30.6,-100.00,WSW,237,14.0,18.0,13,0.00,,,0.00,meteohub,2013-04-13 21:34:00,
2013-04-13 14:39:00,87.6,30.7,-100.00,West,271,8.0,18.0,13,0.00,,,0.00,meteohub,2013-04-13 21:39:00,
2013-04-13 14:44:00,87.3,30.4,-100.00,West,265,6.0,20.0,13,0.00,,,0.00,meteohub,2013-04-13 21:44:00,
2013-04-13 14:49:00,86.5,29.8,-100.00,SSW,213,7.0,22.0,13,0.00,,,0.00,meteohub,2013-04-13 21:49:00,
2013-04-13 14:54:00,86.7,33.6,-100.00,WSW,239,7.0,22.0,15,0.00,,,0.00,meteohub,2013-04-13 21:54:00,
2013-04-13 14:59:00,87.6,30.7,-100.00,SW,224,14.0,22.0,13,0.00,,,0.00,meteohub,2013-04-13 21:59:00,
2013-04-13 15:04:00,87.6,30.7,-100.00,SW,225,16.0,20.0,13,0.00,,,0.00,meteohub,2013-04-13 22:04:00,
2013-04-13 15:09:00,87.6,30.7,-100.00,SW,224,11.0,21.0,13,0.00,,,0.00,meteohub,2013-04-13 22:09:00,
2013-04-13 15:14:00,87.3,30.4,-100.00,WSW,239,11.0,24.0,13,0.00,,,0.00,meteohub,2013-04-13 22:14:00,
2013-04-13 15:19:00,86.9,30.2,-100.00,SW,224,15.0,24.0,13,0.00,,,0.00,meteohub,2013-04-13 22:19:00,
2013-04-13 15:24:00,86.9,30.2,-100.00,SW,232,10.0,24.0,13,0.00,,,0.00,meteohub,2013-04-13 22:24:00,
2013-04-13 15:29:00,86.5,31.6,-100.00,West,263,13.0,24.0,14,0.00,,,0.00,meteohub,2013-04-13 22:29:00,
2013-04-13 15:34:00,86.4,29.7,-100.00,WSW,255,17.0,24.0,13,0.00,,,0.00,meteohub,2013-04-13 22:34:00,
2013-04-13 15:39:00,86.5,29.8,-100.00,SW,231,13.0,24.0,13,0.00,,,0.00,meteohub,2013-04-13 22:39:00,
2013-04-13 15:44:00,86.5,29.8,-100.00,WSW,258,12.0,24.0,13,0.00,,,0.00,meteohub,2013-04-13 22:44:00,
2013-04-13 15:49:00,86.7,28.0,-100.00,SW,229,6.0,24.0,12,0.00,,,0.00,meteohub,2013-04-13 22:49:00,
2013-04-13 15:54:00,87.3,30.4,-100.00,SW,223,15.0,22.0,13,0.00,,,0.00,meteohub,2013-04-13 22:54:00,
2013-04-13 15:59:00,86.7,28.0,-100.00,WSW,249,15.0,22.0,12,0.00,,,0.00,meteohub,2013-04-13 22:59:00,
2013-04-13 16:04:00,87.3,30.4,-100.00,WSW,242,16.0,23.0,13,0.00,,,0.00,meteohub,2013-04-13 23:04:00,
2013-04-13 16:09:00,87.1,28.4,-100.00,WSW,241,18.0,23.0,12,0.00,,,0.00,meteohub,2013-04-13 23:09:00,
2013-04-13 16:14:00,86.7,28.0,-100.00,SW,232,18.0,25.0,12,0.00,,,0.00,meteohub,2013-04-13 23:14:00,
2013-04-13 16:19:00,86.9,28.2,-100.00,WSW,244,16.0,25.0,12,0.00,,,0.00,meteohub,2013-04-13 23:19:00,
2013-04-13 16:24:00,86.7,28.0,-100.00,West,260,18.0,25.0,12,0.00,,,0.00,meteohub,2013-04-13 23:24:00,
2013-04-13 16:29:00,86.5,29.8,-100.00,WSW,246,11.0,30.0,13,0.00,,,0.00,meteohub,2013-04-13 23:29:00,
2013-04-13 16:34:00,86.7,30.0,-100.00,WSW,244,33.0,33.0,13,0.00,,,0.00,meteohub,2013-04-13 23:34:00,
2013-04-13 16:39:00,85.6,29.1,-100.00,SW,236,23.0,31.0,13,0.00,,,0.00,meteohub,2013-04-13 23:39:00,
2013-04-13 16:44:00,85.1,30.6,-100.00,West,266,21.0,34.0,14,0.00,,,0.00,meteohub,2013-04-13 23:44:00,
2013-04-13 16:49:00,85.3,30.7,-100.00,WSW,257,27.0,34.0,14,0.00,,,0.00,meteohub,2013-04-13 23:49:00,
2013-04-13 16:54:00,84.9,30.4,-100.00,WSW,248,17.0,34.0,14,0.00,,,0.00,meteohub,2013-04-13 23:54:00,
2013-04-13 16:59:00,84.7,30.2,-100.00,WSW,245,16.0,31.0,14,0.00,,,0.00,meteohub,2013-04-13 23:59:00,
2013-04-13 17:04:00,84.6,30.2,-100.00,SW,215,12.0,31.0,14,0.00,,,0.00,meteohub,2013-04-14 00:04:00,
2013-04-13 17:09:00,84.4,30.0,-100.00,SW,232,13.0,31.0,14,0.00,,,0.00,meteohub,2013-04-14 00:09:00,
2013-04-13 17:14:00,84.2,29.8,-100.00,WSW,238,26.0,30.0,14,0.00,,,0.00,meteohub,2013-04-14 00:14:00,
2013-04-13 17:19:00,84.4,30.0,-100.00,SW,229,18.0,29.0,14,0.00,,,0.00,meteohub,2013-04-14 00:19:00,
2013-04-13 17:24:00,84.0,29.7,-100.00,WSW,246,17.0,35.0,14,0.00,,,0.00,meteohub,2013-04-14 00:24:00,
2013-04-13 17:29:00,83.5,29.3,-100.00,SW,215,13.0,35.0,14,0.00,,,0.00,meteohub,2013-04-14 00:29:00,
2013-04-13 17:34:00,83.1,28.9,-100.00,SW,215,13.0,35.0,14,0.00,,,0.00,meteohub,2013-04-14 00:34:00,
2013-04-13 17:39:00,82.8,28.8,-100.00,SW,215,19.0,35.0,14,0.00,,,0.00,meteohub,2013-04-14 00:39:00,
2013-04-13 17:44:00,82.6,28.6,-100.00,SW,225,26.0,35.0,14,0.00,,,0.00,meteohub,2013-04-14 00:44:00,
2013-04-13 17:49:00,82.8,30.4,-100.00,South,190,15.0,35.0,15,0.00,,,0.00,meteohub,2013-04-14 00:49:00,
2013-04-13 17:54:00,82.6,30.2,-100.00,WSW,242,14.0,32.0,15,0.00,,,0.00,meteohub,2013-04-14 00:54:00,
2013-04-13 17:59:00,82.0,29.8,-100.00,WSW,250,11.0,32.0,15,0.00,,,0.00,meteohub,2013-04-14 00:59:00,
2013-04-13 18:04:00,82.9,28.8,-100.00,SW,225,15.0,32.0,14,0.00,,,0.00,meteohub,2013-04-14 01:04:00,
2013-04-13 18:10:00,82.8,30.4,-100.00,WSW,238,8.0,32.0,15,0.00,,,0.00,meteohub,2013-04-14 01:10:00,
2013-04-13 18:15:00,82.9,28.8,-100.00,WSW,244,18.0,32.0,14,0.00,,,0.00,meteohub,2013-04-14 01:15:00,
2013-04-13 18:20:00,82.8,28.8,-100.00,WSW,252,8.0,27.0,14,0.00,,,0.00,meteohub,2013-04-14 01:20:00,
2013-04-13 18:25:00,82.4,28.4,-100.00,SW,229,11.0,21.0,14,0.00,,,0.00,meteohub,2013-04-14 01:25:00,
2013-04-13 18:30:00,81.9,29.7,-100.00,SW,235,10.0,21.0,15,0.00,,,0.00,meteohub,2013-04-14 01:30:00,
2013-04-13 18:35:00,81.3,29.3,-100.00,WSW,242,8.0,18.0,15,0.00,,,0.00,meteohub,2013-04-14 01:35:00,
2013-04-13 18:40:00,81.3,29.3,-100.00,WSW,238,8.0,17.0,15,0.00,,,0.00,meteohub,2013-04-14 01:40:00,
2013-04-13 18:45:00,81.1,30.7,-100.00,WSW,254,6.0,18.0,16,0.00,,,0.00,meteohub,2013-04-14 01:45:00,
2013-04-13 18:50:00,80.8,30.4,-100.00,WSW,238,10.0,18.0,16,0.00,,,0.00,meteohub,2013-04-14 01:50:00,
2013-04-13 18:55:00,80.4,30.2,-100.00,WSW,243,8.0,21.0,16,0.00,,,0.00,meteohub,2013-04-14 01:55:00,
2013-04-13 19:00:00,79.9,31.1,-100.00,WSW,241,12.0,21.0,17,0.00,,,0.00,meteohub,2013-04-14 02:00:00,
2013-04-13 19:05:00,79.2,30.6,-100.00,WSW,249,13.0,21.0,17,0.00,,,0.00,meteohub,2013-04-14 02:05:00,
2013-04-13 19:10:00,78.6,30.2,-100.00,West,270,9.0,18.0,17,0.00,,,0.00,meteohub,2013-04-14 02:10:00,
2013-04-13 19:15:00,78.1,31.1,-100.00,WSW,245,15.0,18.0,18,0.00,,,0.00,meteohub,2013-04-14 02:15:00,
2013-04-13 19:20:00,76.8,31.5,-100.00,WSW,246,16.0,25.0,19,0.00,,,0.00,meteohub,2013-04-14 02:20:00,
2013-04-13 19:25:00,76.1,30.9,-100.00,WSW,244,25.0,30.0,19,0.00,,,0.00,meteohub,2013-04-14 02:25:00,
2013-04-13 19:30:00,75.7,30.6,-100.00,WSW,245,22.0,31.0,19,0.00,,,0.00,meteohub,2013-04-14 02:30:00,
2013-04-13 19:35:00,75.6,31.6,-100.00,WSW,250,23.0,31.0,20,0.00,,,0.00,meteohub,2013-04-14 02:35:00,
2013-04-13 19:40:00,75.2,31.5,-100.00,WSW,252,25.0,32.0,20,0.00,,,0.00,meteohub,2013-04-14 02:40:00,
2013-04-13 19:45:00,74.8,32.4,-100.00,WSW,247,18.0,32.0,21,0.00,,,0.00,meteohub,2013-04-14 02:45:00,
2013-04-13 19:50:00,74.7,32.2,-100.00,SW,234,7.0,31.0,21,0.00,,,0.00,meteohub,2013-04-14 02:50:00,
2013-04-13 19:55:00,74.3,33.1,-100.00,WSW,249,27.0,31.0,22,0.00,,,0.00,meteohub,2013-04-14 02:55:00,
2013-04-13 20:00:00,73.9,32.7,-100.00,WSW,244,31.0,33.0,22,0.00,,,0.00,meteohub,2013-04-14 03:00:00,
2013-04-13 20:05:00,73.9,32.7,-100.00,SW,225,16.0,33.0,22,0.00,,,0.00,meteohub,2013-04-14 03:05:00,
2013-04-13 20:10:00,73.8,32.5,-100.00,WSW,252,24.0,33.0,22,0.00,,,0.00,meteohub,2013-04-14 03:10:00,
2013-04-13 20:15:00,73.6,32.4,-100.00,SW,229,22.0,32.0,22,0.00,,,0.00,meteohub,2013-04-14 03:15:00,
2013-04-13 20:20:00,73.6,32.4,-100.00,SW,223,14.0,30.0,22,0.00,,,0.00,meteohub,2013-04-14 03:20:00,
2013-04-13 20:25:00,73.6,32.4,-100.00,SW,215,22.0,30.0,22,0.00,,,0.00,meteohub,2013-04-14 03:25:00,
2013-04-13 20:30:00,73.6,33.4,-100.00,SSW,213,13.0,26.0,23,0.00,,,0.00,meteohub,2013-04-14 03:30:00,
2013-04-13 20:35:00,73.6,33.4,-100.00,SW,232,10.0,25.0,23,0.00,,,0.00,meteohub,2013-04-14 03:35:00,
2013-04-13 20:40:00,73.2,33.3,-100.00,WSW,238,15.0,23.0,23,0.00,,,0.00,meteohub,2013-04-14 03:40:00,
2013-04-13 20:45:00,72.7,33.8,-100.00,SW,233,14.0,22.0,24,0.00,,,0.00,meteohub,2013-04-14 03:45:00,
2013-04-13 20:50:00,72.3,33.4,-100.00,WSW,248,16.0,22.0,24,0.00,,,0.00,meteohub,2013-04-14 03:50:00,
2013-04-13 20:55:00,72.3,34.5,-100.00,SW,228,12.0,23.0,25,0.00,,,0.00,meteohub,2013-04-14 03:55:00,
2013-04-13 21:00:00,72.3,34.5,-100.00,SW,235,18.0,23.0,25,0.00,,,0.00,meteohub,2013-04-14 04:00:00,
2013-04-13 21:05:00,72.1,35.4,-100.00,WSW,242,13.0,32.0,26,0.00,,,0.00,meteohub,2013-04-14 04:05:00,
2013-04-13 21:10:00,72.1,35.4,-100.00,SW,219,14.0,32.0,26,0.00,,,0.00,meteohub,2013-04-14 04:10:00,
2013-04-13 21:15:00,71.8,35.1,-100.00,WSW,243,21.0,30.0,26,0.00,,,0.00,meteohub,2013-04-14 04:15:00,
2013-04-13 21:20:00,71.8,35.1,-100.00,SW,218,9.0,27.0,26,0.00,,,0.00,meteohub,2013-04-14 04:20:00,
2013-04-13 21:25:00,71.4,34.7,-100.00,WSW,252,17.0,25.0,26,0.00,,,0.00,meteohub,2013-04-14 04:25:00,
2013-04-13 21:30:00,71.2,34.5,-100.00,WSW,238,13.0,25.0,26,0.00,,,0.00,meteohub,2013-04-14 04:30:00,
2013-04-13 21:35:00,71.2,34.5,-100.00,WSW,240,9.0,25.0,26,0.00,,,0.00,meteohub,2013-04-14 04:35:00,
2013-04-13 21:40:00,71.2,35.6,-100.00,WSW,248,20.0,22.0,27,0.00,,,0.00,meteohub,2013-04-14 04:40:00,
2013-04-13 21:45:00,71.8,35.1,-100.00,WSW,252,24.0,24.0,26,0.00,,,0.00,meteohub,2013-04-14 04:45:00,
2013-04-13 21:50:00,71.6,34.9,-100.00,SW,227,10.0,24.0,26,0.00,,,0.00,meteohub,2013-04-14 04:50:00,
2013-04-13 21:55:00,71.4,34.7,-100.00,SW,224,12.0,24.0,26,0.00,,,0.00,meteohub,2013-04-14 04:55:00,
2013-04-13 22:00:00,71.4,34.7,-100.00,SSW,212,8.0,24.0,26,0.00,,,0.00,meteohub,2013-04-14 05:00:00,
2013-04-13 22:05:00,71.2,34.5,-100.00,SSW,199,8.0,19.0,26,0.00,,,0.00,meteohub,2013-04-14 05:05:00,
2013-04-13 22:10:00,71.4,34.7,-100.00,SSW,213,15.0,22.0,26,0.00,,,0.00,meteohub,2013-04-14 05:10:00,
2013-04-13 22:15:00,71.2,35.6,-100.00,SW,221,13.0,22.0,27,0.00,,,0.00,meteohub,2013-04-14 05:15:00,
2013-04-13 22:20:00,70.9,34.3,-100.00,SSW,200,14.0,24.0,26,0.00,,,0.00,meteohub,2013-04-14 05:20:00,
2013-04-13 22:25:00,71.4,33.8,-100.00,SW,228,14.0,26.0,25,0.00,,,0.00,meteohub,2013-04-14 05:25:00,
2013-04-13 22:30:00,71.8,34.0,-100.00,SW,215,14.0,26.0,25,0.00,,,0.00,meteohub,2013-04-14 05:30:00,
2013-04-13 22:35:00,72.0,34.2,-100.00,SW,215,4.0,26.0,25,0.00,,,0.00,meteohub,2013-04-14 05:35:00,
2013-04-13 22:40:00,71.8,33.1,-100.00,WSW,240,6.0,18.0,24,0.00,,,0.00,meteohub,2013-04-14 05:40:00,
2013-04-13 22:45:00,72.3,32.4,-100.00,West,281,6.0,16.0,23,0.00,,,0.00,meteohub,2013-04-14 05:45:00,
2013-04-13 22:50:00,72.9,31.8,-100.00,WSW,257,9.0,15.0,22,0.00,,,0.00,meteohub,2013-04-14 05:50:00,
2013-04-13 22:55:00,73.0,30.7,-100.00,WSW,242,9.0,16.0,21,0.00,,,0.00,meteohub,2013-04-14 05:55:00,
2013-04-13 23:00:00,73.0,30.7,-100.00,SW,225,6.0,16.0,21,0.00,,,0.00,meteohub,2013-04-14 06:00:00,
2013-04-13 23:05:00,72.9,30.6,-100.00,SW,227,2.0,15.0,21,0.00,,,0.00,meteohub,2013-04-14 06:05:00,
2013-04-13 23:10:00,73.0,32.0,-100.00,West,260,8.0,17.0,22,0.00,,,0.00,meteohub,2013-04-14 06:10:00,
2013-04-13 23:15:00,72.9,30.6,-100.00,SSW,205,8.0,17.0,21,0.00,,,0.00,meteohub,2013-04-14 06:15:00,
2013-04-13 23:20:00,72.3,32.4,-100.00,SW,223,6.0,17.0,23,0.00,,,0.00,meteohub,2013-04-14 06:20:00,
2013-04-13 23:25:00,71.4,33.8,-100.00,SW,219,13.0,18.0,25,0.00,,,0.00,meteohub,2013-04-14 06:25:00,
2013-04-13 23:30:00,70.9,33.3,-100.00,SW,229,16.0,18.0,25,0.00,,,0.00,meteohub,2013-04-14 06:30:00,
2013-04-13 23:35:00,70.5,34.0,-100.00,SSW,213,11.0,20.0,26,0.00,,,0.00,meteohub,2013-04-14 06:35:00,
2013-04-13 23:40:00,70.3,33.8,-100.00,SSW,202,15.0,22.0,26,0.00,,,0.00,meteohub,2013-04-14 06:40:00,
2013-04-13 23:45:00,70.5,34.9,-100.00,SW,228,22.0,22.0,27,0.00,,,0.00,meteohub,2013-04-14 06:45:00,
2013-04-13 23:50:00,70.9,34.3,-100.00,SW,218,12.0,22.0,26,0.00,,,0.00,meteohub,2013-04-14 06:50:00,
2013-04-13 23:56:00,70.7,35.1,-100.00,SW,232,19.0,22.0,27,0.00,,,0.00,meteohub,2013-04-14 06:56:00,